Location: Gwatt
(46.7204°N, 7.6223°E)
Time: 17:33:36
(UTC+00:00)

deb Explorer IX - Pass Details

Date: 21 January 2021
Orbit: 537 x 1102 km, 38.8° (Epoch: 04 March)

Event Time Altitude Azimuth Distance (km) Brightness Sun altitude
Rises 17:31:39 0° 214° (SW) 3,612 ? -12.7°
Reaches altitude 10° 17:35:13 10° 197° (SSW) 2,557 ? -13.3°
Maximum altitude 17:39:12 18° 156° (SSE) 1,908 ? -13.9°
Enters shadow 17:42:17 12° 119° (ESE) 2,183 ? -14.4°
Drops below altitude 10° 17:42:49 10° 114° (ESE) 2,295 - -14.5°
Sets 17:45:47 0° 96° (E) 3,110 - -15.0°
